{"data":{"norad_id":53355,"epoch":"2026-05-25T04:24:13.466016Z","epoch_age_seconds":52392,"freshness":"FRESH","line1":"1 53355U 22092A   26145.18348919 -.00000298  00000+0  00000+0 0  9995","line2":"2 53355   3.2961 317.1396 0002062  96.3466  34.3447  1.00271304 14006","mean_motion":1.00271304,"eccentricity":0.0002062,"inclination_deg":3.2961,"raan_deg":317.1396,"arg_perigee_deg":96.3466,"mean_anomaly_deg":34.3447,"bstar":0,"rev_number":1400,"period_min":1436.1037929655,"perigee_km":35778.035407956,"apogee_km":35795.424199025,"semimajor_km":42164.866803491,"source":"CELESTRAK","updated_at":"2026-05-25T13:38:14.109534Z"}}